Total_Precipitation_Accumulation
0.05 0.05 0.02 0.02 0.03 0.05 0.09 0.12 0.12 0.02 0.00 0.00 0.00 0.00 0.01 0.09 0.02 0.02 0.01 0.02 0.11 0.26 0.22 0.14 0.07 0.08 0.02 0.01 0.05 0.15 0.65 1.09 0.79 0.54 0.40 0.29 0.33 0.18 0.10 0.09 0.04 0.03 0.03 0.02
0.03 0.02 0.01 0.02 0.04 0.05 0.06 0.04 0.00 0.00 0.00 0.00 0.00 0.00 0.12 0.17 0.11 0.16 0.16 0.26 0.35 0.20 0.16 0.09 0.04 0.09 0.08 0.04 0.04 0.11 0.50 1.24 1.18 0.89 0.55 0.35 0.23 0.22 0.17 0.09 0.05 0.05 0.06 0.04
0.02 0.00 0.01 0.03 0.02 0.00 0.00 0.00 0.00 0.00 0.00 0.00 0.00 0.00 0.06 0.04 0.07 0.04 0.09 0.20 0.32 0.41 0.14 0.09 0.05 0.05 0.09 0.07 0.04 0.10 0.18 0.56 1.04 1.16 1.14 0.78 0.55 0.78 0.45 0.28 0.17 0.10 0.12 0.08
0.00 0.00 0.00 0.00 0.01 0.00 0.00 0.01 0.01 0.00 0.00 0.00 0.00 0.03 0.04 0.02 0.08 0.04 0.12 0.18 0.44 0.17 0.22 0.26 0.11 0.08 0.06 0.09 0.13 0.13 0.17 0.25 0.55 0.94 1.59 1.21 0.62 0.52 0.64 0.33 0.14 0.13 0.12 0.12
0.00 0.00 0.00 0.00 0.01 0.00 0.02 0.01 0.00 0.00 0.00 0.00 0.00 0.06 0.01 0.06 0.21 0.25 0.86 0.62 1.15 0.93 1.06 0.87 0.20 0.12 0.20 0.23 0.26 0.17 0.16 0.25 0.35 0.55 0.75 1.48 1.39 0.65 0.42 0.53 0.48 0.30 0.25 0.15
0.00 0.00 0.00 0.00 0.00 0.00 0.01 0.00 0.00 0.00 0.02 0.03 0.00 0.02 0.00 0.10 0.17 0.10 0.45 0.63 1.31 1.60 1.27 1.26 1.42 0.61 0.48 0.61 0.72 0.35 0.22 0.29 0.25 0.30 0.48 0.61 1.31 1.34 0.91 0.64 0.69 0.68 0.47 0.35
0.00 0.00 0.00 0.00 0.00 0.00 0.00 0.00 0.00 0.01 0.12 0.07 0.00 0.01 0.10 0.04 0.03 0.07 0.45 0.77 1.54 1.84 1.65 1.82 2.03 1.89 1.76 1.60 1.18 0.73 0.32 0.55 0.29 0.26 0.33 0.38 0.45 0.76 0.87 0.90 0.77 0.73 0.75 0.68
0.00 0.00 0.00 0.00 0.00 0.00 0.00 0.00 0.02 0.05 0.13 0.03 0.00 0.02 0.07 0.01 0.00 0.03 0.30 0.62 1.34 1.34 1.53 0.98 1.44 1.68 1.48 1.35 0.82 0.36 0.23 0.66 0.53 0.29 0.24 0.24 0.39 0.29 0.47 0.61 0.80 0.87 0.68 0.61
0.00 0.00 0.00 0.00 0.00 0.00 0.00 0.01 0.03 0.04 0.01 0.00 0.02 0.00 0.00 0.00 0.00 0.00 0.04 0.37 1.30 1.24 1.01 0.84 1.26 1.11 0.84 0.46 0.60 0.42 0.30 0.26 0.77 0.55 0.43 0.29 0.19 0.17 0.15 0.25 0.44 0.50 0.61 0.73
0.00 0.00 0.00 0.00 0.00 0.00 0.00 0.00 0.00 0.00 0.00 0.00 0.00 0.03 0.05 0.00 0.00 0.00 0.01 0.07 0.25 0.58 0.72 0.83 0.82 1.05 0.90 0.71 0.85 0.48 0.17 0.17 0.27 0.85 0.58 0.76 0.37 0.26 0.25 0.17 0.23 0.38 0.44 0.40
0.00 0.00 0.00 0.00 0.00 0.00 0.00 0.00 0.00 0.00 0.00 0.00 0.00 0.06 0.06 0.00 0.00 0.00 0.00 0.00 0.01 0.07 0.21 0.19 0.13 0.13 0.33 0.44 0.45 0.38 0.26 0.16 0.27 0.39 0.67 0.77 1.02 0.68 0.49 0.42 0.34 0.35 0.37 0.38
0.00 0.00 0.00 0.00 0.00 0.00 0.00 0.00 0.00 0.00 0.00 0.00 0.00 0.05 0.01 0.00 0.00 0.00 0.00 0.00 0.00 0.00 0.02 0.10 0.06 0.01 0.06 0.16 0.22 0.28 0.25 0.28 0.35 0.24 0.28 0.41 0.59 1.28 0.97 0.94 0.73 0.64 0.49 0.33
0.00 0.00 0.00 0.00 0.00 0.00 0.00 0.00 0.00 0.00 0.00 0.00 0.00 0.00 0.00 0.00 0.00 0.00 0.00 0.00 0.00 0.00 0.00 0.00 0.00 0.00 0.00 0.01 0.02 0.11 0.19 0.18 0.27 0.15 0.20 0.42 0.34 0.62 0.99 0.99 1.29 1.19 0.90 0.67
0.00 0.00 0.00 0.00 0.00 0.00 0.00 0.00 0.00 0.00 0.00 0.00 0.00 0.00 0.00 0.00 0.00 0.00 0.00 0.00 0.00 0.00 0.00 0.00 0.00 0.00 0.00 0.00 0.00 0.00 0.01 0.02 0.04 0.08 0.10 0.31 0.63 0.60 0.51 0.48 0.63 0.84 0.95 0.79
0.00 0.00 0.00 0.00 0.00 0.00 0.00 0.00 0.00 0.00 0.00 0.00 0.00 0.00 0.00 0.00 0.00 0.00 0.00 0.00 0.00 0.00 0.00 0.00 0.00 0.00 0.00 0.00 0.00 0.00 0.00 0.00 0.00 0.01 0.04 0.11 0.21 0.17 0.16 0.22 0.27 0.31 0.35 0.37
0.00 0.00 0.00 0.00 0.00 0.00 0.00 0.00 0.00 0.00 0.00 0.00 0.00 0.00 0.00 0.00 0.00 0.00 0.00 0.00 0.00 0.00 0.00 0.00 0.00 0.00 0.00 0.00 0.00 0.00 0.00 0.00 0.00 0.00 0.00 0.01 0.01 0.01 0.01 0.02 0.04 0.08 0.13 0.17
0.00 0.00 0.00 0.00 0.00 0.00 0.00 0.00 0.00 0.00 0.00 0.00 0.00 0.00 0.00 0.00 0.00 0.00 0.00 0.00 0.00 0.00 0.00 0.00 0.00 0.00 0.00 0.00 0.00 0.00 0.00 0.00 0.00 0.00 0.00 0.00 0.00 0.00 0.00 0.00 0.00 0.00 0.00 0.00
0.00 0.00 0.00 0.00 0.00 0.00 0.00 0.00 0.00 0.00 0.00 0.00 0.00 0.00 0.00 0.00 0.00 0.00 0.00 0.00 0.00 0.00 0.00 0.00 0.00 0.00 0.00 0.00 0.00 0.00 0.00 0.00 0.00 0.00 0.00 0.00 0.00 0.00 0.00 0.00 0.00 0.00 0.00 0.00
0.00 0.00 0.00 0.00 0.00 0.00 0.00 0.00 0.00 0.00 0.00 0.00 0.00 0.00 0.00 0.00 0.00 0.00 0.00 0.00 0.00 0.00 0.00 0.00 0.00 0.00 0.00 0.00 0.00 0.00 0.00 0.00 0.00 0.00 0.00 0.00 0.00 0.00 0.00 0.00 0.00 0.00 0.00 0.00
0.00 0.00 0.00 0.00 0.00 0.00 0.00 0.00 0.00 0.00 0.00 0.00 0.00 0.00 0.00 0.00 0.00 0.00 0.00 0.00 0.00 0.00 0.00 0.00 0.00 0.00 0.00 0.00 0.00 0.00 0.00 0.00 0.00 0.00 0.00 0.00 0.00 0.00 0.00 0.00 0.00 0.00 0.00 0.00
0.00 0.00 0.00 0.00 0.00 0.00 0.00 0.00 0.00 0.00 0.00 0.00 0.00 0.00 0.00 0.00 0.00 0.00 0.00 0.00 0.00 0.00 0.00 0.00 0.00 0.00 0.00 0.00 0.00 0.00 0.00 0.00 0.00 0.00 0.00 0.00 0.00 0.00 0.00 0.00 0.00 0.00 0.00 0.00
0.00 0.00 0.00 0.00 0.00 0.00 0.00 0.00 0.00 0.00 0.00 0.00 0.00 0.00 0.00 0.00 0.00 0.00 0.00 0.00 0.00 0.00 0.00 0.00 0.00 0.00 0.00 0.00 0.00 0.00 0.00 0.00 0.00 0.00 0.00 0.00 0.00 0.00 0.00 0.00 0.00 0.00 0.00 0.00
0.00 0.00 0.00 0.00 0.00 0.00 0.00 0.00 0.00 0.00 0.00 0.00 0.00 0.00 0.00 0.00 0.00 0.00 0.00 0.00 0.00 0.00 0.00 0.00 0.00 0.00 0.00 0.00 0.00 0.00 0.00 0.00 0.00 0.00 0.00 0.00 0.00 0.00 0.00 0.00 0.00 0.00 0.00 0.00
0.00 0.00 0.00 0.00 0.00 0.00 0.00 0.00 0.00 0.00 0.00 0.00 0.00 0.00 0.00 0.00 0.00 0.00 0.00 0.00 0.00 0.00 0.00 0.00 0.00 0.00 0.00 0.00 0.00 0.00 0.00 0.00 0.00 0.00 0.00 0.00 0.00 0.00 0.00 0.00 0.00 0.00 0.00 0.00
0.00 0.00 0.00 0.00 0.00 0.00 0.00 0.00 0.00 0.00 0.00 0.00 0.00 0.00 0.00 0.00 0.00 0.00 0.00 0.00 0.00 0.00 0.00 0.00 0.00 0.00 0.00 0.00 0.00 0.00 0.00 0.00 0.00 0.00 0.00 0.00 0.00 0.00 0.00 0.00 0.00 0.00 0.00 0.00
0.00 0.00 0.00 0.00 0.00 0.00 0.00 0.00 0.00 0.00 0.00 0.00 0.00 0.00 0.00 0.00 0.00 0.00 0.00 0.00 0.00 0.00 0.00 0.00 0.00 0.00 0.00 0.00 0.00 0.00 0.00 0.00 0.00 0.00 0.00 0.00 0.00 0.00 0.00 0.00 0.00 0.00 0.00 0.00